This is the latest recevied weather packets stored in our database for station/object N6GPM. If no packets are shown the sender has not sent any weather packets the latest 10 day(s).
| Time | Temp. | Humidity | Pressure | Rain* | Wind** | Luminosity | Snow |
|---|---|---|---|---|---|---|---|
| 1788112688 | 31.67° C | 33% | 1017 hPa | 0 mm | - | 870 W/m² | - |
| 1788112382 | 32.22° C | 32% | 1016.9 hPa | 0 mm | - | 860 W/m² | - |
| 1788112082 | 32.78° C | 31% | 1017.3 hPa | 0 mm | - | 845 W/m² | - |
| 1788111778 | 31.67° C | 34% | 1017.3 hPa | 0 mm | - | 833 W/m² | - |
| 1788111472 | 31.11° C | 35% | 1017.3 hPa | 0 mm | - | 822 W/m² | - |
| 1788111168 | 31.11° C | 35% | 1017.3 hPa | 0 mm | - | 806 W/m² | - |
| 1788110864 | 30.56° C | 36% | 1016.9 hPa | 0 mm | - | 792 W/m² | - |
| 1788110561 | 30° C | 36% | 1017.2 hPa | 0 mm | - | 776 W/m² | - |
| 1788110256 | 29.44° C | 37% | 1017.3 hPa | 0 mm | - | 759 W/m² | - |
| 1788109951 | 30° C | 37% | 1017.3 hPa | 0 mm | - | 745 W/m² | - |
| 1788109645 | 29.44° C | 39% | 1017.3 hPa | 0 mm | - | 729 W/m² | - |
| 1788109344 | 29.44° C | 39% | 1017 hPa | 0 mm | - | 713 W/m² | - |
| 1788109044 | 28.89° C | 40% | 1017.2 hPa | 0 mm | - | 696 W/m² | - |
| 1788108740 | 28.89° C | 40% | 1017.4 hPa | 0 mm | - | 679 W/m² | - |
| 1788108436 | 29.44° C | 40% | 1017.2 hPa | 0 mm | - | 663 W/m² | - |
| 1788108132 | 28.89° C | 42% | 1017.4 hPa | 0 mm | - | 643 W/m² | - |
| 1788107828 | 28.33° C | 42% | 1017.3 hPa | 0 mm | - | 626 W/m² | - |
| 1788107524 | 27.78° C | 44% | 1017.2 hPa | 0 mm | - | 606 W/m² | - |
| 1788107218 | 27.78° C | 45% | 1017.3 hPa | 0 mm | - | 592 W/m² | - |
| 1788106914 | 27.78° C | 45% | 1017.2 hPa | 0 mm | - | 569 W/m² | - |
| 1788106608 | 27.22° C | 46% | 1017 hPa | 0 mm | - | 552 W/m² | - |
| 1788106303 | 26.67° C | 48% | 1017.5 hPa | 0 mm | - | 530 W/m² | - |
| 1788105999 | 26.67° C | 48% | 1017.3 hPa | 0 mm | - | 514 W/m² | - |
| 1788105694 | 27.22° C | 48% | 1017.5 hPa | 0 mm | - | 487 W/m² | - |
| 1788105391 | 26.67° C | 48% | 1017.4 hPa | 0 mm | - | 464 W/m² | - |
* Rain latest hour (hover to see other rain measurements)
** Current wind speed in m/s (hover to see current wind gust speed)